[[{"header":{"parameterUnit":"m.s-1","parameterCategory":1,"la1":30.2991,"la2":30.254,"lo1":-89.0895,"lo2":-89.0444,"dy":0.0017,"dx":0.0017,"nx":28,"ny":28,"refTime":"2024-04-17T21:00:00:Z","depth":0,"parameterNumber":2,"parameterNumberName":"U-component_of_WINDS"},"data":[0,0,0,0,0,0,0,0,0,0,0,0,0,0,0,0,0,0,0,0,0,0,0,0,0,0,0,0,0,0,0,0,0,0,0,0,0,0,0,0,0,0,0,0,0,0,0,0,0,0,0,0,0,0,0,0,0,0,-1.1824,-1.1824,0,-1.1816,-1.1816,-1.1816,-1.1796,-1.1796,-1.1795,-1.1795,-1.1787,-1.1787,-1.1787,0,0,0,0,0,0,0,0,0,0,0,0,0,-1.1825,-1.1825,-1.1824,-1.1824,-1.1824,-1.1816,-1.1816,-1.1816,-1.1796,-1.1796,-1.1795,-1.1795,-1.1787,-1.1787,-1.1787,0,0,0,0,0,0,0,0,0,0,0,0,0,-1.1822,-1.1825,-1.1824,-1.1813,-1.1812,-1.1816,-1.1816,-1.1816,-1.1796,-1.1796,-1.1795,-1.1795,-1.1787,-1.1787,-1.1787,-1.1801,0,0,-1.1788,-1.1788,0,0,0,0,0,0,0,0,-1.1822,-1.1822,-1.1815,-1.1814,-1.1813,-1.1806,-1.1813,-1.1811,-1.1797,-1.1802,-1.1795,-1.1794,-1.1794,-1.1793,-1.1793,-1.18,-1.18,-1.1788,-1.1788,-1.1788,-1.1788,0,0,0,0,0,0,0,-1.1822,-1.1822,-1.1821,-1.1815,-1.1814,-1.1809,-1.1808,-1.1812,-1.1802,-1.1802,-1.18,-1.18,-1.1793,-1.1793,-1.1793,-1.18,-1.1788,-1.1788,-1.1788,-1.1788,-1.1819,-1.182,0,0,0,0,0,0,-1.1824,-1.1822,-1.1821,-1.1821,-1.1816,-1.181,-1.1809,-1.1809,-1.1802,-1.18,-1.18,-1.1799,-1.1793,-1.1793,-1.1793,-1.1808,-1.1788,-1.1788,-1.1788,-1.1818,-1.1819,-1.182,0,0,0,0,0,0,-1.1824,-1.1824,-1.1821,-1.1821,-1.182,-1.1811,-1.1811,-1.1809,-1.1809,-1.18,-1.1798,-1.1802,-1.1792,-1.1792,-1.1799,-1.1808,-1.1788,-1.1789,-1.1817,-1.1819,-1.1819,-1.184,0,0,0,0,0,0,-1.1824,-1.1824,-1.1828,-1.1821,-1.182,-1.1828,-1.1812,-1.181,-1.1809,-1.1808,-1.1801,-1.18,-1.1792,-1.1799,-1.1799,-1.1808,-1.1789,-1.1817,-1.1818,-1.1819,-1.1838,-1.1841,-1.1844,0,0,0,0,0,-1.1824,-1.1834,-1.1829,-1.1829,-1.1826,-1.1828,-1.1828,-1.1818,-1.181,-1.1815,-1.181,-1.18,-1.1807,-1.18,-1.18,-1.1809,-1.1816,-1.1818,-1.1819,-1.1837,-1.1841,-1.1844,0,0,0,0,0,0,-1.1842,-1.1833,-1.1827,-1.1835,-1.1833,-1.1825,-1.183,-1.1822,-1.1822,-1.182,-1.1809,-1.1808,-1.1817,-1.1813,-1.1805,-1.1822,-1.181,-1.1812,-1.1823,-1.1827,-1.183,-1.183,-1.1789,0,0,0,0,0,-1.1848,-1.185,-1.1842,-1.185,-1.1849,-1.184,-1.1841,-1.1834,-1.1831,-1.183,-1.1825,-1.1823,-1.1824,-1.1826,-1.1827,-1.1838,-1.1837,-1.1844,-1.1847,-1.185,-1.1851,-1.1858,-1.1861,-1.1825,-1.1825,-1.1825,0,0,-1.1858,-1.1853,-1.1855,-1.1853,-1.1851,-1.1854,-1.1839,-1.1843,-1.1845,-1.183,-1.1836,-1.1833,-1.183,-1.1839,-1.1843,-1.1837,-1.1861,-1.1852,-1.1854,-1.1854,-1.186,-1.1863,-1.1866,-1.1826,-1.1826,-1.1825,0,0,-1.1878,-1.1875,-1.1881,-1.1879,-1.1875,-1.187,-1.1872,-1.1865,-1.1863,-1.1869,-1.1858,-1.1861,-1.1864,-1.1863,-1.1862,-1.1885,-1.1876,-1.1885,-1.19,-1.1907,-1.191,-1.1912,-1.192,-1.1923,-1.1887,-1.1887,-1.1887,0,-1.1891,-1.1895,-1.1886,-1.189,-1.189,-1.1878,-1.1885,-1.1883,-1.188,-1.1881,-1.1874,-1.1879,-1.1875,-1.1885,-1.189,-1.1891,-1.1893,-1.1885,-1.191,-1.1912,-1.1914,-1.1922,-1.1925,-1.1888,-1.1888,-1.1888,-1.1888,0,-1.1912,-1.1915,-1.1921,-1.1918,-1.1919,-1.1925,-1.1917,-1.1919,-1.1913,-1.1909,-1.1916,-1.1912,-1.1913,-1.1915,-1.1908,-1.1924,-1.192,-1.1912,-1.1899,-1.1919,-1.1926,-1.1929,-1.189,-1.1889,-1.1889,-1.1889,0,0,-1.1942,-1.1935,-1.1937,-1.1937,-1.1933,-1.1935,-1.1941,-1.1942,-1.1944,-1.1943,-1.1948,-1.1952,-1.1945,-1.1945,-1.1939,-1.1945,-1.1963,-1.1936,-1.1936,-1.1941,-1.198,-1.1986,-1.199,-1.1958,-1.1959,-1.1959,-1.1981,0,-1.1961,-1.197,-1.1962,-1.1973,-1.1976,-1.1965,-1.1971,-1.1969,-1.1966,-1.1969,-1.1965,-1.1968,-1.1958,-1.1958,-1.1964,-1.196,-1.1971,-1.1958,-1.1963,-1.1963,-1.1963,-1.1993,-1.1999,-1.202,-1.1983,-1.1984,-1.1984,0,-1.1983,-1.1984,-1.1995,-1.1991,-1.1992,-1.1997,-1.1998,-1.2001,-1.2,-1.1997,-1.1997,-1.199,-1.1997,-1.1986,-1.1995,-1.1986,-1.1988,-1.1987,-1.1988,-1.1987,-1.1974,-1.1994,-1.2026,-1.2029,-1.1988,-1.1988,-1.1988,0,-1.2004,-1.2008,-1.2015,-1.2015,-1.2011,-1.2015,-1.2013,-1.2011,-1.2013,-1.2014,-1.2015,-1.2017,-1.2018,-1.202,-1.2014,-1.2006,-1.2024,-1.2012,-1.2023,-1.2023,-1.2026,-1.2026,-1.2059,-1.2028,-1.2028,-1.2028,-1.2028,0,-1.2026,-1.2033,-1.2024,-1.2029,-1.2037,-1.2029,-1.2038,-1.2036,-1.2034,-1.2039,-1.203,-1.2034,-1.2026,-1.203,-1.2026,-1.2035,-1.2035,-1.2034,-1.2032,-1.2034,-1.2034,-1.2035,-1.2033,-1.2029,-1.2029,-1.2028,-1.2028,0,-1.205,-1.2044,-1.2052,-1.2048,-1.2047,-1.2054,-1.205,-1.2055,-1.2051,-1.2057,-1.2058,-1.2053,-1.2057,-1.2052,-1.2056,-1.2053,-1.2065,-1.2062,-1.2065,-1.2064,-1.2075,-1.2074,-1.2109,-1.2113,-1.208,-1.208,-1.208,0,-1.2064,-1.2069,-1.2066,-1.2069,-1.2068,-1.2072,-1.2073,-1.2066,-1.2068,-1.2068,-1.2073,-1.2077,-1.2079,-1.2087,-1.2084,-1.2087,-1.2084,-1.2096,-1.2084,-1.2086,-1.2084,-1.2084,-1.2085,-1.2098,-1.2099,-1.2099,-1.2099,0,-1.209,-1.2087,-1.2089,-1.2091,-1.2093,-1.2095,-1.2095,-1.2098,-1.2091,-1.2094,-1.2098,-1.21,-1.2105,-1.2109,-1.2112,-1.2111,-1.2104,-1.2103,-1.2106,-1.2108,-1.2109,-1.2109,-1.2071,-1.2102,-1.2102,-1.2102,-1.2102,-1.2101,-1.2109,-1.2114,-1.2113,-1.2116,-1.2116,-1.2117,-1.2121,-1.2119,-1.2122,-1.2125,-1.2121,-1.2127,-1.2127,-1.213,-1.213,-1.2135,-1.213,-1.2134,-1.2135,-1.2136,-1.2137,-1.2109,-1.2136,-1.2136,-1.2136,-1.2136,-1.2136,0,-1.2134,-1.2133,-1.2136,-1.2138,-1.2141,-1.2135,-1.2135,-1.2138,-1.2144,-1.2144,-1.2147,-1.2153,-1.2157,-1.2155,-1.2159,-1.2164,-1.2161,-1.2165,-1.2164,-1.2165,-1.2142,-1.2139,-1.2167,-1.2167,-1.2167,-1.2167,-1.2167,-1.2167,-1.2147,-1.2155,-1.2153,-1.2161,-1.216,-1.2166,-1.2167,-1.2168,-1.2169,-1.2176,-1.2179,-1.2178,-1.2178,-1.2182,-1.2186,-1.2185,-1.2187,-1.2193,-1.2191,-1.2169,-1.2166,-1.2163,-1.2161,-1.2193,-1.2193,-1.2213,-1.2214,-1.2214]},{"header":{"parameterUnit":"m.s-1","parameterCategory":1,"la1":30.2991,"la2":30.254,"lo1":-89.0895,"lo2":-89.0444,"dy":0.0017,"dx":0.0017,"nx":28,"ny":28,"refTime":"2024-04-17T21:00:00:Z","depth":0,"parameterNumber":3,"parameterNumberName":"V-component_of_WINDS"},"data":[0,0,0,0,0,0,0,0,0,0,0,0,0,0,0,0,0,0,0,0,0,0,0,0,0,0,0,0,0,0,0,0,0,0,0,0,0,0,0,0,0,0,0,0,0,0,0,0,0,0,0,0,0,0,0,0,0,0,3.6194,3.6195,0,3.6242,3.6243,3.6243,3.6319,3.632,3.6321,3.6323,3.6368,3.6368,3.6368,0,0,0,0,0,0,0,0,0,0,0,0,0,3.6166,3.6166,3.6194,3.6195,3.6196,3.6242,3.6243,3.6243,3.6318,3.632,3.6322,3.6323,3.6368,3.6368,3.6368,0,0,0,0,0,0,0,0,0,0,0,0,0,3.6192,3.6166,3.6194,3.6239,3.6243,3.6242,3.6243,3.6244,3.6318,3.632,3.6322,3.6324,3.6368,3.6368,3.6368,3.6326,0,0,3.6367,3.6367,0,0,0,0,0,0,0,0,3.6191,3.6193,3.6232,3.6236,3.6241,3.6277,3.625,3.6271,3.6317,3.6289,3.6323,3.6325,3.6336,3.6338,3.6343,3.6328,3.633,3.6367,3.6367,3.6367,3.6367,0,0,0,0,0,0,0,3.6189,3.6192,3.6213,3.6232,3.6237,3.6256,3.6262,3.6254,3.63,3.6292,3.6298,3.6302,3.6338,3.6343,3.6344,3.6331,3.6367,3.6367,3.6367,3.6367,3.6287,3.6285,0,0,0,0,0,0,3.6181,3.619,3.6212,3.6215,3.622,3.6254,3.6261,3.6263,3.6301,3.6308,3.6301,3.6306,3.6342,3.6344,3.6346,3.6302,3.6367,3.6367,3.6367,3.6289,3.6287,3.6284,0,0,0,0,0,0,3.618,3.6182,3.621,3.6204,3.6209,3.6253,3.6254,3.6263,3.6267,3.6307,3.6316,3.6296,3.6343,3.6346,3.6331,3.6305,3.6367,3.6367,3.6292,3.6288,3.6286,3.6212,0,0,0,0,0,0,3.6179,3.6181,3.6166,3.6203,3.6209,3.6194,3.6252,3.6262,3.6267,3.6274,3.6305,3.6313,3.6345,3.6331,3.6331,3.6306,3.6367,3.6294,3.629,3.6287,3.6217,3.6207,3.6198,0,0,0,0,0,3.6178,3.6142,3.6165,3.6167,3.6191,3.6193,3.6196,3.6235,3.6264,3.625,3.6276,3.6312,3.6307,3.6329,3.633,3.6304,3.6296,3.6291,3.6287,3.6221,3.6209,3.6198,0,0,0,0,0,0,3.6099,3.6148,3.6174,3.6149,3.6167,3.6205,3.6188,3.622,3.6229,3.6235,3.6282,3.6289,3.6268,3.6284,3.6308,3.6267,3.6307,3.6303,3.6257,3.6245,3.6236,3.6233,3.6367,0,0,0,0,0,3.608,3.6078,3.612,3.6094,3.6102,3.6143,3.6145,3.6174,3.6194,3.6201,3.6226,3.6243,3.6246,3.6246,3.6251,3.6219,3.6228,3.6202,3.6192,3.6184,3.618,3.6167,3.6156,3.6269,3.6269,3.6269,0,0,3.6038,3.6064,3.606,3.6079,3.6096,3.6093,3.6149,3.6142,3.6141,3.62,3.6188,3.6207,3.6229,3.6206,3.6197,3.6219,3.6151,3.6178,3.6171,3.6172,3.6161,3.615,3.6141,3.6266,3.6267,3.6267,0,0,3.5962,3.598,3.5963,3.5979,3.6005,3.6033,3.6028,3.6063,3.6078,3.6068,3.6113,3.6111,3.6114,3.6129,3.6136,3.6067,3.6101,3.6067,3.6018,3.6004,3.5996,3.5988,3.5965,3.5956,3.6062,3.6062,3.6062,0,3.5907,3.5905,3.5949,3.5941,3.5949,3.6004,3.5986,3.5999,3.6024,3.6028,3.6052,3.6059,3.6077,3.606,3.6044,3.6047,3.6044,3.6064,3.5993,3.5986,3.598,3.5959,3.595,3.6058,3.6059,3.6059,3.6059,0,3.5837,3.5835,3.5818,3.5843,3.5848,3.5835,3.5877,3.5877,3.5906,3.5932,3.5921,3.5945,3.5957,3.5955,3.5981,3.5942,3.5955,3.5985,3.6027,3.5964,3.5945,3.5938,3.6052,3.6054,3.6055,3.6056,0,0,3.5713,3.5764,3.5757,3.577,3.5803,3.5802,3.5792,3.5805,3.5805,3.582,3.5814,3.5816,3.5846,3.5854,3.5884,3.5872,3.5818,3.5904,3.5906,3.5889,3.5778,3.5756,3.5746,3.5841,3.5839,3.5838,3.5777,0,3.5644,3.5632,3.5671,3.5648,3.5648,3.5701,3.5692,3.5711,3.5735,3.5738,3.5764,3.5766,3.5803,3.581,3.58,3.5827,3.5797,3.5831,3.5836,3.5835,3.583,3.5736,3.5713,3.5654,3.577,3.5769,3.5768,0,3.5563,3.5577,3.5554,3.5591,3.5592,3.5584,3.56,3.5602,3.5625,3.5643,3.5654,3.5689,3.5682,3.5722,3.5713,3.5736,3.574,3.5753,3.5752,3.5755,3.5799,3.5738,3.5636,3.5628,3.5756,3.5757,3.5758,0,3.5477,3.5489,3.5479,3.5488,3.5529,3.5523,3.554,3.5565,3.5571,3.5585,3.5589,3.5601,3.5608,3.5616,3.5653,3.5679,3.5641,3.5683,3.5657,3.5656,3.5648,3.5648,3.5546,3.5647,3.5647,3.5647,3.5647,0,3.5398,3.5382,3.5441,3.5434,3.5419,3.5465,3.5448,3.547,3.5492,3.5491,3.5536,3.5533,3.5582,3.5585,3.5614,3.5604,3.5605,3.5621,3.5629,3.5618,3.5616,3.5622,3.5628,3.5645,3.5645,3.5646,3.5646,0,3.53,3.5338,3.533,3.5371,3.5381,3.5368,3.5403,3.5398,3.5426,3.5423,3.5425,3.5467,3.5473,3.5511,3.5525,3.5545,3.5525,3.554,3.5517,3.5523,3.5495,3.5498,3.5395,3.5385,3.549,3.5489,3.5488,0,3.5248,3.5238,3.5278,3.5281,3.5297,3.53,3.5307,3.5352,3.5357,3.5384,3.5377,3.5387,3.5397,3.5404,3.5436,3.5447,3.5464,3.5427,3.5466,3.5456,3.5466,3.5467,3.5467,3.5419,3.5418,3.5417,3.5416,0,3.5152,3.5172,3.5181,3.5197,3.5205,3.5219,3.5236,3.5235,3.5285,3.5289,3.5296,3.5305,3.532,3.533,3.5347,3.5364,3.5398,3.5403,3.5398,3.5388,3.5376,3.5384,3.5497,3.5406,3.5407,3.5408,3.5408,3.5408,3.5077,3.5071,3.51,3.5109,3.5127,3.5142,3.5141,3.5168,3.5176,3.5193,3.5219,3.5223,3.5248,3.5275,3.5289,3.5294,3.5313,3.5305,3.5303,3.5301,3.5296,3.5374,3.5296,3.5297,3.5297,3.5297,3.5298,0,3.4985,3.5007,3.5014,3.5038,3.5045,3.5078,3.5099,3.5103,3.5107,3.5127,3.5138,3.5147,3.5157,3.519,3.5204,3.5201,3.5217,3.5203,3.5205,3.5208,3.5277,3.5281,3.519,3.519,3.519,3.519,3.519,3.519,3.4939,3.4932,3.4955,3.4958,3.4979,3.4985,3.4995,3.5009,3.5027,3.5036,3.5045,3.5067,3.5093,3.5109,3.512,3.513,3.5133,3.5115,3.5129,3.5193,3.5203,3.5213,3.5218,3.5114,3.5114,3.5061,3.506,3.506]}]]